This demonstration page uses our WeatherBlox Daily Observations layout. Learn more.

Hourly Observations for August 13, 2020

Temp ( °F °C ) Dew Point ( °F °C ) Humidity (%) Winds ( mph kmh ) Pressure ( in mb ) Visibility ( mi km ) Precip ( " mm )
12:15 am 00:15 Clear 72 22 69 20.5 91 91 SSE 3 6 29.88 1012 10 16.0934 0 0
12:35 am 00:35 Clear 71 21.7 69 20.5 93 93 Calm 29.9 1013 10 16.0934 0 0
12:55 am 00:55 Partly Cloudy 71 21.5 68 20.1 92 92 SSE 3 6 29.89 1012 10 16.0934 0 0
1:15 am 01:15 Partly Cloudy 70 21.1 68 20 93 93 SSE 3 6 29.89 1012 10 16.0934 0 0
1:35 am 01:35 Partly Cloudy 70 20.9 68 20 95 95 Calm 29.89 1012 10 16.0934 0 0
1:55 am 01:55 Mostly Cloudy 69 20.3 67 19.3 94 94 SE 3 6 29.88 1012 10 16.0934 0 0
2:15 am 02:15 Partly Cloudy 69 20.7 68 19.9 95 95 SSE 3 6 29.88 1012 10 16.0934 0 0
2:35 am 02:35 Partly Cloudy 70 20.9 68 20.1 95 95 Calm 29.89 1012 10 16.0934 0 0
2:55 am 02:55 Mostly Cloudy 69 20.8 68 20 95 95 Calm 29.9 1013 10 16.0934 0 0
3:15 am 03:15 Cloudy 70 21.2 69 20.5 96 96 Calm 29.91 1013 10 16.0934 0 0
3:35 am 03:35 Mostly Cloudy 70 21.2 69 20.4 95 95 W 6 9 29.93 1013 10 16.0934 0 0
3:55 am 03:55 Cloudy 71 21.5 69 20.7 95 95 Calm 29.92 1013 10 16.0934 0 0
4:15 am 04:15 Cloudy 71 21.5 69 20.7 95 95 Calm 29.91 1013 10 16.0934 0 0
4:35 am 04:35 Mostly Cloudy 71 21.7 69 20.7 94 94 SSE 6 9 29.89 1012 10 16.0934 0 0
4:55 am 04:55 Partly Cloudy 70 21.1 69 20.4 96 96 SE 3 6 29.88 1012 7 11.26538 0 0
5:15 am 05:15 Clear 70 21 68 20.2 95 95 SE 8 13 29.86 1011 7 11.26538 0 0
5:35 am 05:35 Clear 70 21.3 69 20.6 96 96 SE 14 22 29.86 1011 10 16.0934 0 0
5:55 am 05:55 Clear 71 21.5 69 20.8 96 96 ESE 14 22 29.85 1011 10 16.0934 0 0
6:15 am 06:15 Partly Cloudy 70 21.2 69 20.5 96 96 SE 13 20 29.84 1010 7 11.26538 0 0
6:35 am 06:35 Partly Cloudy 70 21.3 69 20.6 96 96 SE 8 13 29.85 1011 10 16.0934 0 0
6:55 am 06:55 Sunny 70 21.3 69 20.6 96 96 SSE 6 9 29.85 1011 10 16.0934 0 0
7:15 am 07:15 Partly Cloudy 71 21.4 69 20.6 95 95 SSE 9 15 29.87 1011 7 11.26538 0 0
7:35 am 07:35 Cloudy 71 21.8 70 21.1 96 96 SSE 8 13 29.87 1012 7 11.26538 0 0
7:55 am 07:55 Cloudy 72 22 70 21.3 96 96 S 8 13 29.88 1012 7 11.26538 0 0
8:15 am 08:15 Cloudy 72 22.3 71 21.5 95 95 S 6 9 29.9 1012 7 11.26538 0 0
8:35 am 08:35 Cloudy 73 22.7 71 21.7 94 94 SSE 6 9 29.9 1012 7 11.26538 0 0
8:55 am 08:55 Cloudy 73 22.7 71 21.7 94 94 SSE 5 7 29.91 1013 7 11.26538 0 0
9:15 am 09:15 Cloudy with Mist and Fog 73 22.8 72 22 95 95 S 6 9 29.91 1013 3 4.82802 0 0
9:35 am 09:35 Cloudy with Mist and Fog 73 22.9 72 22.1 95 95 SSE 6 9 29.91 1013 1.25 2.011675 0 0
9:55 am 09:55 Cloudy with Mist and Fog 73 23 72 22.2 95 95 SSE 8 13 29.91 1013 1.25 2.011675 0 0
10:15 am 10:15 Cloudy with Mist and Fog 73 23 72 22.2 95 95 SSE 8 13 29.91 1013 3 4.82802 0 0
10:35 am 10:35 Cloudy with Mist and Fog 74 23.1 73 22.5 96 96 SSE 9 15 29.91 1013 3 4.82802 0 0
10:55 am 10:55 Cloudy 74 23.1 72 22.3 95 95 S 10 17 29.93 1014 7 11.26538 0 0
11:15 am 11:15 Cloudy 74 23.6 72 22.3 92 92 S 10 17 29.93 1013 10 16.0934 0 0
11:35 am 11:35 Cloudy 75 23.7 72 22.3 92 92 S 12 19 29.93 1013 10 16.0934 0 0
11:55 am 11:55 Cloudy 75 24.1 72 22.2 89 89 S 12 19 29.91 1013 10 16.0934 0 0
12:15 pm 12:15 Cloudy 76 24.6 72 22.1 86 86 S 12 19 29.9 1013 10 16.0934 0 0
12:35 pm 12:35 Cloudy 78 25.3 72 22.1 83 83 S 12 19 29.89 1012 10 16.0934 0 0
12:55 pm 12:55 Cloudy 79 25.9 71 21.9 79 79 S 8 13 29.89 1012 10 16.0934 0 0
1:15 pm 13:15 Cloudy 80 26.8 72 22.2 76 76 SSW 9 15 29.87 1012 10 16.0934 0 0
1:35 pm 13:35 Mostly Cloudy 83 28.2 72 22.3 70 70 S 14 22 29.85 1011 10 16.0934 0 0
1:55 pm 13:55 Mostly Cloudy 84 29 72 22 66 66 S 12 19 29.84 1010 10 16.0934 0 0
2:15 pm 14:15 Mostly Cloudy 85 29.7 71 21.9 63 63 SSW 12 19 29.83 1010 10 16.0934 0 0
2:35 pm 14:35 Mostly Cloudy 85 29.6 71 21.8 63 63 S 12 19 29.82 1010 10 16.0934 0 0
2:55 pm 14:55 Mostly Cloudy 86 29.8 71 21.5 61 61 S 13 20 29.81 1009 10 16.0934 0 0
3:15 pm 15:15 Mostly Cloudy 88 30.9 71 21.6 58 58 S 12 19 29.8 1009 10 16.0934 0 0
3:35 pm 15:35 Partly Cloudy 88 31 70 21.1 56 56 S 13 20 29.79 1009 10 16.0934 0 0
3:55 pm 15:55 Sunny 88 31.3 70 20.9 54 54 S 10 17 29.79 1009 10 16.0934 0 0
4:15 pm 16:15 Sunny 89 31.5 70 20.9 53 53 S 12 19 29.78 1008 10 16.0934 0 0
4:35 pm 16:35 Sunny 89 31.5 69 20.8 53 53 S 12 19 29.78 1008 10 16.0934 0 0
4:55 pm 16:55 Sunny 89 31.7 69 20.8 52 52 S 10 17 29.77 1008 10 16.0934 0 0
5:15 pm 17:15 Sunny 89 31.7 68 20.1 50 50 S 10 17 29.77 1008 10 16.0934 0 0
5:35 pm 17:35 Sunny 89 31.6 68 19.9 50 50 S 12 19 29.77 1008 10 16.0934 0 0
5:55 pm 17:55 Sunny 89 31.5 69 20.5 52 52 S 9 15 29.77 1008 10 16.0934 0 0
6:15 pm 18:15 Sunny 88 31.1 69 20.5 53 53 S 12 19 29.77 1008 10 16.0934 0 0
6:35 pm 18:35 Sunny 88 30.9 69 20.8 55 55 S 12 19 29.76 1008 10 16.0934 0 0
6:55 pm 18:55 Sunny 87 30.5 69 20.8 56 56 SSE 9 15 29.75 1008 10 16.0934 0 0
7:15 pm 19:15 Sunny 85 29.6 71 21.5 62 62 SSE 9 15 29.76 1008 10 16.0934 0 0
7:35 pm 19:35 Sunny 84 28.8 70 21.1 63 63 SSE 7 11 29.77 1008 10 16.0934 0 0
7:55 pm 19:55 Sunny 83 28.4 70 21 64 64 SSE 9 15 29.78 1008 10 16.0934 0 0
8:15 pm 20:15 Sunny 82 27.6 69 20.3 64 64 SSE 7 11 29.79 1009 10 16.0934 0 0
8:35 pm 20:35 Sunny 79 26 69 20.5 72 72 SSE 5 7 29.81 1009 10 16.0934 0 0
8:55 pm 20:55 Clear 77 25.1 69 20.6 76 76 Calm 29.84 1010 10 16.0934 0 0
9:15 pm 21:15 Clear 74 23.6 69 20.7 84 84 E 3 6 29.87 1011 10 16.0934 0 0
9:35 pm 21:35 Clear 73 22.7 69 20.5 87 87 ENE 3 6 29.89 1012 10 16.0934 0 0
9:55 pm 21:55 Clear 73 22.5 68 20.1 86 86 SE 10 17 29.89 1012 10 16.0934 0 0
10:15 pm 22:15 Clear 74 23.5 67 19.7 79 79 SSE 9 15 29.88 1012 10 16.0934 0 0
10:35 pm 22:35 Clear 74 23.1 67 19.5 80 80 SE 8 13 29.86 1011 10 16.0934 0 0
10:55 pm 22:55 Clear 73 22.5 67 19.5 83 83 SSE 8 13 29.87 1011 10 16.0934 0 0
11:15 pm 23:15 Clear 72 22.3 67 19.2 83 83 SSE 8 13 29.86 1011 10 16.0934 0 0
11:35 pm 23:35 Clear 71 21.9 66 19 84 84 SE 7 11 29.87 1012 10 16.0934 0 0
11:55 pm 23:55 Clear 71 21.4 66 19 86 86 SSE 6 9 29.89 1012 10 16.0934 0 0

Powered by AerisWeather